GW7013 Weather Reports


time (UTC)temp
C
wind
direction
speed
KPH
gust
KPH
rain 1hr
cm
rain 24hr
cm
rain mn
cm
humidity
%
barometer
mb
20260510045026 11 203 3.2 9.7 0.00 0.74 0.00 86 1010.1
20260510044024 10 205 1.6 4.8 0.00 0.74 0.00 88 1009.4
20260510043021 10 185 3.2 4.8 0.00 0.74 0.00 89 1009.0
20260510042017 10 127 1.6 3.2 0.00 0.74 0.00 88 1009.0
20260510041034 11 179 3.2 6.4 0.00 0.74 0.00 87 1008.9
20260510040052 11 194 4.8 9.7 0.00 0.74 0.74 87 1009.0
20260510035049 11 199 4.8 8.0 0.00 0.74 0.74 87 1009.3
20260510034025 11 194 4.8 11.3 0.00 0.74 0.74 86 1009.2
20260510033022 11 198 4.8 8.0 0.00 0.74 0.74 86 1009.2
20260510032019 11 203 4.8 6.4 0.00 0.74 0.74 86 1009.1
20260510031036 11 205 6.4 11.3 0.00 0.74 0.74 86 1008.9
20260510030033 11 192 4.8 14.5 0.00 0.74 0.74 86 1008.8
20260510025030 11 205 6.4 11.3 0.00 0.74 0.74 85 1008.8
20260510024027 11 203 4.8 9.7 0.00 0.74 0.74 86 1008.9
20260510023024 11 189 1.6 6.4 0.00 0.74 0.74 85 1008.7
20260510022021 10 198 4.8 9.7 0.00 0.74 0.74 87 1008.5
20260510021018 11 161 1.6 4.8 0.00 0.74 0.74 85 1008.6
20260510020034 11 179 3.2 6.4 0.00 0.74 0.74 84 1008.8
20260510015051 11 196 3.2 6.4 0.00 0.74 0.74 85 1008.7
20260510014028 11 202 3.2 8.0 0.00 0.74 0.74 85 1008.6
20260510013025 11 193 3.2 8.0 0.00 0.74 0.74 85 1008.5
20260510012022 11 185 3.2 11.3 0.00 0.74 0.74 83 1008.5
20260510011019 11 188 4.8 12.9 0.00 0.74 0.74 84 1008.4
20260510010016 11 137 1.6 3.2 0.00 0.74 0.74 84 1008.4
20260510005033 11 189 3.2 6.4 0.00 0.74 0.74 83 1008.2
20260510004050 11 178 3.2 8.0 0.00 0.74 0.74 84 1008.2
20260510003027 12 166 1.6 3.2 0.00 0.74 0.74 83 1008.4
20260510002024 12 192 3.2 8.0 0.00 0.74 0.74 82 1008.1
20260510001021 12 210 6.4 11.3 0.00 0.74 0.74 82 1008.2
20260510000017 12 206 4.8 8.0 0.00 0.74 0.74 83 1008.0
20260509235034 12 188 1.6 4.8 0.00 0.74 0.74 84 1007.6
20260509234031 12 147 1.6 3.2 0.00 0.74 0.74 84 1007.7
20260509233028 12 175 3.2 6.4 0.00 0.74 0.74 84 1007.7
20260509232105 12 192 3.2 6.4 0.00 0.74 0.74 83 1007.8
20260509231021 12 208 4.8 6.4 0.00 0.74 0.74 82 1007.7
20260509230018 12 209 6.4 11.3 0.00 0.74 0.74 82 1007.5
20260509225034 12 216 6.4 9.7 0.00 0.74 0.74 82 1007.6
20260509224032 12 212 6.4 9.7 0.00 0.74 0.74 81 1007.6
20260509223029 12 210 6.4 12.9 0.00 0.74 0.74 81 1007.5
20260509222026 12 211 6.4 12.9 0.00 0.74 0.74 81 1007.4
20260509221023 12 202 4.8 12.9 0.00 0.74 0.74 82 1007.5
20260509220020 12 213 6.4 12.9 0.00 0.74 0.74 83 1007.6
20260509215016 11 210 6.4 11.3 0.00 0.74 0.74 83 1007.6
20260509214034 11 206 8.0 19.3 0.00 0.74 0.74 84 1007.9
20260509213031 11 211 9.7 16.1 0.00 0.74 0.74 84 1008.0
20260509212027 11 210 9.7 19.3 0.74 0.74 0.74 84 1007.9
20260509211023 11 207 8.0 14.5 0.74 0.74 0.74 84 1008.0
20260509210020 11 216 8.0 14.5 0.74 0.74 0.74 84 1008.1
20260509205016 11 211 9.7 17.7 0.74 0.74 0.74 84 1008.2
20260509204053 11 213 9.7 19.3 0.74 0.74 0.74 85 1008.2
20260509203050 11 219 8.0 17.7 0.74 0.86 0.74 84 1008.3
20260509202027 11 210 11.3 22.5 0.00 0.13 0.00 85 1008.3
20260509201025 11 204 9.7 19.3 0.00 0.13 0.00 86 1008.3
20260509200021 11 203 6.4 14.5 0.00 0.13 0.00 87 1008.5
20260509195019 11 193 4.8 16.1 0.00 0.13 0.00 87 1008.6
20260509194016 11 208 4.8 12.9 0.00 0.13 0.00 87 1008.7
20260509193053 11 205 4.8 14.5 0.00 0.13 0.00 87 1008.9
20260509192049 11 206 4.8 12.9 0.00 0.13 0.00 88 1008.8
20260509191028 10 178 1.6 6.4 0.00 0.13 0.00 88 1008.9
20260509190023 10 192 3.2 6.4 0.00 0.13 0.00 88 1009.0
20260509185041 10 203 3.2 6.4 0.00 0.13 0.00 88 1009.0
20260509184018 10 216 1.6 4.8 0.00 0.13 0.00 89 1009.0
20260509183015 10 198 3.2 6.4 0.00 0.13 0.00 89 1009.0
20260509182052 10 190 3.2 6.4 0.00 0.13 0.00 89 1009.0
20260509181029 11 207 4.8 9.7 0.00 0.13 0.00 88 1008.9
20260509180027 11 151 3.2 6.4 0.00 0.13 0.00 89 1008.8
20260509175023 11 191 4.8 6.4 0.00 0.13 0.00 89 1008.8
20260509174021 11 201 4.8 8.0 0.00 0.13 0.00 89 1008.9
20260509173019 10 194 4.8 9.7 0.00 0.13 0.00 89 1008.8
20260509172034 10 172 1.6 6.4 0.00 0.13 0.00 90 1009.0
20260509171031 10 175 3.2 8.0 0.00 0.13 0.00 90 1009.1
20260509170028 10 175 3.2 4.8 0.00 0.13 0.00 90 1009.0
20260509165046 10 192 3.2 4.8 0.00 0.13 0.00 91 1009.1
20260509164022 10 177 3.2 6.4 0.00 0.13 0.00 91 1009.2
20260509163020 10 245 1.6 4.8 0.00 0.13 0.00 93 1009.4
20260509162016 10 167 1.6 6.4 0.00 0.13 0.00 94 1009.6
20260509161033 9 178 1.6 4.8 0.00 0.13 0.00 95 1009.7
20260509160030 9 195 3.2 9.7 0.00 0.13 0.00 96 1009.8
20260509155026 8 120 1.6 4.8 0.00 0.13 0.00 97 1010.0
20260509154023 8 336 1.6 3.2 0.00 0.13 0.00 97 1010.3
20260509153019 8 150 3.2 8.0 0.00 0.13 0.00 98 1010.3
20260509152016 8 137 1.6 6.4 0.00 0.13 0.00 97 1010.3
20260509151033 7 28 1.6 4.8 0.00 0.13 0.00 98 1010.3
20260509150031 7 0 1.6 4.8 0.00 0.13 0.00 97 1010.4
20260509145027 7 350 1.6 6.4 0.00 0.13 0.00 97 1010.4
20260509144024 7 311 1.6 4.8 0.00 0.13 0.00 97 1010.5
20260509143021 6 346 1.6 6.4 0.00 0.13 0.00 97 1010.6
20260509142038 6 338 1.6 6.4 0.00 0.13 0.00 97 1010.6
20260509141034 6 360 1.6 4.8 0.00 0.13 0.00 96 1010.6
20260509140032 6 151 1.6 6.4 0.00 0.13 0.00 96 1010.6
20260509135028 6 148 3.2 8.0 0.00 0.13 0.00 96 1010.6
20260509134025 5 123 1.6 4.8 0.00 0.13 0.00 96 1010.7
20260509133021 5 91 1.6 3.2 0.00 0.13 0.00 97 1010.8
20260509132120 5 158 1.6 3.2 0.00 0.15 0.00 97 1010.7
20260509131016 5 18 1.6 3.2 0.00 0.15 0.00 97 1010.8
20260509130033 4 46 1.6 3.2 0.00 0.15 0.00 97 1010.9
20260509125030 3 11 0.0 3.2 0.00 0.15 0.00 97 1010.8
20260509124027 3 336 0.0 4.8 0.00 0.15 0.00 96 1010.9
20260509123024 3 85 1.6 3.2 0.00 0.15 0.00 96 1010.9
20260509122021 3 114 1.6 3.2 0.00 0.15 0.00 96 1011.1
20260509121018 3 308 1.6 3.2 0.00 0.15 0.00 96 1011.2
20260509120035 3 104 1.6 4.8 0.00 0.15 0.00 96 1011.2
20260509115031 3 67 1.6 4.8 0.00 0.15 0.00 96 1011.1
20260509114028 3 330 1.6 3.2 0.00 0.15 0.00 96 1011.1
20260509113025 3 336 1.6 4.8 0.00 0.15 0.00 96 1011.2
20260509112045 3 36 1.6 3.2 0.00 0.15 0.00 95 1011.3
20260509111020 3 151 1.6 4.8 0.00 0.15 0.00 95 1011.3
20260509110016 3 132 1.6 3.2 0.00 0.15 0.00 95 1011.2
20260509105033 3 157 1.6 3.2 0.00 0.15 0.00 95 1011.2
20260509104110 3 152 1.6 3.2 0.00 0.15 0.00 94 1011.1
20260509103027 2 281 1.6 3.2 0.00 0.15 0.00 95 1010.8
20260509102024 3 198 1.6 3.2 0.00 0.15 0.00 95 1010.9
20260509101021 2 100 0.0 3.2 0.00 0.15 0.00 98 1010.9
20260509100017 2 355 1.6 6.4 0.00 0.15 0.00 94 1011.0
20260509095034 2 19 1.6 4.8 0.00 0.15 0.00 97 1011.1
20260509094031 2 2 1.6 4.8 0.00 0.15 0.00 95 1011.1
20260509093027 2 313 1.6 3.2 0.00 0.15 0.00 94 1011.3
20260509092105 2 66 1.6 3.2 0.00 0.15 0.00 94 1011.1
20260509091021 3 315 1.6 4.8 0.00 0.15 0.00 93 1011.4
20260509090039 3 165 1.6 4.8 0.00 0.15 0.00 92 1011.5
20260509085035 3 50 1.6 6.4 0.00 0.15 0.00 91 1011.5
20260509084052 3 167 3.2 8.0 0.00 0.15 0.00 89 1011.5
20260509083028 3 179 3.2 6.4 0.00 0.15 0.00 89 1011.5
20260509082046 3 153 1.6 4.8 0.00 0.15 0.00 88 1011.5
20260509081022 3 166 3.2 6.4 0.00 0.15 0.00 88 1011.5
20260509080019 3 158 3.2 6.4 0.00 0.15 0.00 89 1011.6
20260509075036 3 181 1.6 4.8 0.00 0.15 0.00 92 1011.6
20260509074032 2 30 1.6 6.4 0.00 0.15 0.00 96 1011.5
20260509073030 2 63 0.0 3.2 0.00 0.15 0.00 91 1011.6
20260509072047 2 51 1.6 3.2 0.00 0.15 0.00 90 1011.5
20260509071024 2 0.0 0.0 0.00 0.15 0.00 91 1011.7
20260509070021 2 0.0 0.0 0.00 0.15 0.00 91 1011.6
20260509065038 1 0.0 1.6 0.00 0.15 0.00 92 1011.8
20260509064034 1 328 0.0 1.6 0.00 0.15 0.00 94 1011.8
20260509063032 1 313 0.0 3.2 0.00 0.15 0.00 94 1012.0
20260509062048 1 333 0.0 3.2 0.00 0.15 0.00 91 1012.0
20260509061025 1 0.0 1.6 0.00 0.15 0.00 92 1012.1
20260509060042 1 0.0 1.6 0.00 0.15 0.00 92 1012.1
20260509055018 1 0.0 0.0 0.00 0.15 0.00 94 1012.3
20260509054033 1 46 0.0 1.6 0.00 0.15 0.00 96 1012.3
20260509053029 1 175 0.0 3.2 0.00 0.15 0.00 92 1012.4
20260509052027 1 324 0.0 3.2 0.00 0.15 0.00 91 1012.4
20260509051044 1 0.0 3.2 0.00 0.15 0.00 92 1012.5
20260509050022 1 331 0.0 3.2 0.00 0.15 0.00 95 1012.5